Location: Ajisawe
(8.4333°N, 4.3833°E)
Time: 22:49:18
(UTC+00:00)

S-56A Canister/Altair - Pass Details

Date: 20 April 2021
Orbit: 631 x 2501 km, 38.9° (Epoch: 14 May)

Event Time Altitude Azimuth Distance (km) Brightness Sun altitude
Rises 19:03:51 0° 223° (SW) 6,123 12.5 -18.1°
Reaches altitude 10° 19:08:06 10° 221° (SW) 5,008 12.0 -19.1°
Maximum altitude 19:22:01 72° 139° (SE) 1,997 9.3 -22.5°
Enters shadow 19:29:17 22° 60° (ENE) 2,941 10.1 -24.2°
